Regional Weather Roundup
Issued by NWS

Home | Current Version | Previous Version | Graphics & Text | Print | Product List | Glossary On
Versions: 1 2 3 4 5 6 7 8 9 10 11 12 13 14 15 16 17 18 19 20 21 22 23 24 25 26 27 28 29 30 31 32 33 34 35 36 37 38 39 40 41 42 43 44 45 46 47 48 49 50
000
ASUS43 KOAX 011202
RWRNE

WEATHER ROUNDUP FOR NEBRASKA
NATIONAL WEATHER SERVICE OMAHA NE
700 AM CDT WED APR 01 2015

NOTES: SATELLITE DATA IS BEING USED TO AUGMENT CLOUD COVER ABOVE
       12000 FEET.
       "FAIR" INDICATES FEW OR NO CLOUDS BELOW 12,000 FEET WITH NO
       SIGNIFICANT WEATHER AND/OR OBSTRUCTIONS TO VISIBILITY.

  * THESE STATIONS DO NOT REPORT WEATHER SUCH AS RAIN...SNOW OR FOG.

NEZ001>004-019>022-054>056-011300-
NEBRASKA PANHANDLE

CITY           SKY/WX    TMP DP  RH WIND       PRES   REMARKS
SCOTTSBLUFF    MOCLDY    42  23  46 N3        29.63S
6HR MIN TEMP:  41; 6HR MAX TEMP:  64;

ALLIANCE       MOCLDY    44  25  47 S6        29.60F
6HR MIN TEMP:  41; 6HR MAX TEMP:  59;

CHADRON        CLOUDY    57  24  28 SW12      29.54R
6HR MIN TEMP:  47; 6HR MAX TEMP:  66;

SIDNEY         PTCLDY    39  25  57 W9        29.66S WCI  33
6HR MIN TEMP:  39; 6HR MAX TEMP:  55;

$$

NEZ057>060-069>072-079>082-011300-
SOUTHWEST NEBRASKA

CITY           SKY/WX    TMP DP  RH WIND       PRES   REMARKS
NORTH PLATTE   CLEAR     54  38  54 S12       29.66F
6HR MIN TEMP:  54; 6HR MAX TEMP:  60;

IMPERIAL         N/A     54  43  66 S12       29.65F
6HR MIN TEMP:  54; 6HR MAX TEMP:  60;

MCCOOK         CLEAR     54  41  61 SW7       29.69F
6HR MIN TEMP:  54; 6HR MAX TEMP:  61;

$$

NEZ005>010-023>029-035>040-094-011300-
NORTH CENTRAL NEBRASKA

CITY           SKY/WX    TMP DP  RH WIND       PRES   REMARKS
VALENTINE      MOCLDY    58  33  39 SW20      29.54F
6HR MIN TEMP:  56; 6HR MAX TEMP:  61;

AINSWORTH      MOCLDY    56  33  41 S16       29.57F
BROKEN BOW     CLEAR     57  38  48 S9        29.67F
6HR MIN TEMP:  56; 6HR MAX TEMP:  61;

ORD            CLEAR     53  34  48 S12       29.67F
6HR MIN TEMP:  53; 6HR MAX TEMP:  60;

$$

NEZ041-046>049-061>064-073>077-083>087-011300-
SOUTH CENTRAL NEBRASKA

CITY           SKY/WX    TMP DP  RH WIND       PRES   REMARKS
GRAND ISLAND   CLEAR     54  40  59 S15       29.72F
6HR MIN TEMP:  51; 6HR MAX TEMP:  57;

AURORA         CLEAR     51  38  59 S14G21    29.73F
HASTINGS       CLEAR     54  41  61 S10       29.73F
6HR MIN TEMP:  53; 6HR MAX TEMP:  58;

KEARNEY *      CLEAR     54  37  54 SE14      29.72S
YORK           PTCLDY    50  37  62 S10       29.76S
$$

NEZ011>018-030>034-042>045-011300-
NORTHEAST NEBRASKA

CITY           SKY/WX    TMP DP  RH WIND       PRES   REMARKS
NORFOLK        CLEAR     55  36  48 S20G28    29.71S
6HR MIN TEMP:  54; 6HR MAX TEMP:  59;

ALBION         CLEAR     50  36  59 SE8       29.72S
BLAIR          CLEAR     57  32  38 S18       29.79S
COLUMBUS *     CLEAR     52  32  46 S10       29.76S
FREMONT        CLEAR     55  33  44 SE14      29.78S
TEKAMAH        CLEAR     55  33  43 S17       29.78S
6HR MIN TEMP:  44; 6HR MAX TEMP:  55;

$$

NEZ050>053-065>068-078-088>093-011300-
SOUTHEAST NEBRASKA

CITY           SKY/WX    TMP DP  RH WIND       PRES   REMARKS
LINCOLN        CLEAR     54  34  46 S15       29.79S
6HR MIN TEMP:  50; 6HR MAX TEMP:  56;

OMAHA EPPLEY   PTCLDY    58  33  39 S20       29.80S
6HR MIN TEMP:  52; 6HR MAX TEMP:  58;

BEATRICE       CLEAR     53  34  48 S10G16    29.80S
FALLS CITY     CLEAR     50  33  52 SE13      29.83F
6HR MIN TEMP:  49; 6HR MAX TEMP:  57;

NEBRASKA CITY  CLEAR     52  31  44 S13       29.82F
$$

NEZ044-045-051>053-067-011300-
OMAHA AREA

CITY           SKY/WX    TMP DP  RH WIND       PRES   REMARKS
OMAHA EPPLEY   PTCLDY    58  33  39 S20       29.80S
6HR MIN TEMP:  52; 6HR MAX TEMP:  58;

BLAIR          CLEAR     57  32  38 S18       29.79S
FREMONT        CLEAR     55  33  44 SE14      29.78S
OFFUTT AFB     CLEAR     53  34  47 SE14      29.81R
WAHOO          FAIR      53  32  45 S12       29.78F
$$


USA.gov is the U.S. government's official web portal to all federal, state and local government web resources and services.